QPF
0.00 0.00 0.00 0.00 0.00 0.00 0.00 0.00 0.00 0.00 0.00 0.00 0.00 0.01 0.02 0.02 0.03 0.03 0.04 0.05 0.05 0.06 0.07 0.05 0.05 0.05 0.04 0.05 0.05 0.06 0.08 0.10 0.14 0.21 0.17 0.11 0.10 0.08 0.08 0.10 0.10 0.12 0.20
0.00 0.00 0.00 0.00 0.00 0.00 0.00 0.00 0.00 0.00 0.00 0.00 0.00 0.01 0.02 0.03 0.03 0.03 0.03 0.03 0.04 0.04 0.05 0.07 0.05 0.05 0.06 0.06 0.06 0.06 0.07 0.10 0.12 0.16 0.18 0.11 0.09 0.08 0.08 0.09 0.10 0.11 0.14
0.00 0.00 0.00 0.00 0.00 0.00 0.00 0.00 0.00 0.00 0.00 0.00 0.00 0.01 0.01 0.02 0.03 0.03 0.03 0.02 0.02 0.03 0.04 0.06 0.07 0.06 0.07 0.08 0.06 0.05 0.07 0.08 0.11 0.12 0.15 0.10 0.09 0.09 0.09 0.08 0.09 0.08 0.10
0.00 0.00 0.00 0.00 0.00 0.00 0.00 0.00 0.00 0.00 0.00 0.00 0.00 0.01 0.01 0.01 0.02 0.03 0.03 0.03 0.03 0.03 0.03 0.04 0.06 0.07 0.08 0.09 0.09 0.07 0.07 0.06 0.07 0.09 0.10 0.10 0.08 0.08 0.08 0.07 0.08 0.06 0.06
0.00 0.00 0.00 0.00 0.00 0.00 0.00 0.00 0.00 0.00 0.00 0.01 0.01 0.02 0.02 0.01 0.01 0.02 0.04 0.03 0.03 0.03 0.03 0.03 0.04 0.06 0.07 0.08 0.08 0.08 0.06 0.06 0.05 0.06 0.07 0.07 0.10 0.09 0.07 0.06 0.06 0.07 0.05
0.00 0.00 0.00 0.00 0.00 0.00 0.00 0.00 0.00 0.00 0.01 0.01 0.01 0.01 0.02 0.01 0.01 0.01 0.02 0.03 0.04 0.05 0.04 0.04 0.03 0.03 0.05 0.07 0.07 0.06 0.06 0.06 0.06 0.06 0.06 0.06 0.09 0.09 0.05 0.05 0.05 0.07 0.06
0.00 0.00 0.00 0.00 0.00 0.00 0.00 0.00 0.00 0.00 0.00 0.00 0.01 0.01 0.02 0.01 0.01 0.01 0.02 0.04 0.06 0.08 0.05 0.04 0.03 0.03 0.03 0.05 0.06 0.06 0.07 0.07 0.07 0.06 0.05 0.04 0.05 0.07 0.06 0.04 0.04 0.05 0.06
0.00 0.00 0.00 0.00 0.00 0.00 0.00 0.01 0.01 0.00 0.00 0.00 0.01 0.01 0.01 0.01 0.02 0.02 0.02 0.03 0.06 0.10 0.08 0.05 0.04 0.03 0.04 0.04 0.05 0.06 0.06 0.06 0.07 0.07 0.06 0.04 0.05 0.06 0.06 0.04 0.04 0.05 0.04
0.00 0.00 0.00 0.00 0.00 0.00 0.00 0.00 0.00 0.00 0.01 0.01 0.01 0.01 0.01 0.01 0.02 0.03 0.04 0.04 0.06 0.10 0.11 0.09 0.06 0.04 0.05 0.04 0.04 0.04 0.05 0.04 0.07 0.08 0.07 0.07 0.07 0.07 0.06 0.05 0.05 0.06 0.04
0.00 0.00 0.00 0.00 0.00 0.00 0.00 0.00 0.00 0.00 0.01 0.01 0.00 0.01 0.01 0.01 0.01 0.01 0.02 0.03 0.06 0.08 0.09 0.08 0.07 0.07 0.06 0.05 0.04 0.05 0.04 0.04 0.06 0.09 0.08 0.08 0.08 0.08 0.06 0.06 0.06 0.06 0.06
0.00 0.00 0.00 0.00 0.00 0.00 0.00 0.01 0.00 0.00 0.01 0.01 0.01 0.01 0.01 0.01 0.01 0.01 0.02 0.02 0.06 0.06 0.07 0.09 0.09 0.08 0.07 0.06 0.05 0.05 0.05 0.04 0.05 0.09 0.10 0.10 0.11 0.13 0.09 0.07 0.06 0.07 0.07
0.00 0.00 0.00 0.00 0.00 0.00 0.00 0.01 0.00 0.01 0.01 0.01 0.01 0.01 0.01 0.01 0.01 0.01 0.01 0.02 0.03 0.02 0.04 0.06 0.06 0.07 0.08 0.07 0.06 0.06 0.05 0.04 0.04 0.05 0.08 0.10 0.13 0.17 0.13 0.11 0.08 0.07 0.09
0.00 0.00 0.00 0.00 0.00 0.00 0.00 0.01 0.00 0.01 0.01 0.01 0.01 0.01 0.01 0.01 0.01 0.01 0.01 0.01 0.01 0.02 0.02 0.04 0.04 0.05 0.06 0.06 0.05 0.06 0.04 0.03 0.03 0.04 0.03 0.05 0.08 0.16 0.14 0.12 0.10 0.09 0.10
0.00 0.01 0.00 0.00 0.00 0.00 0.00 0.01 0.00 0.00 0.00 0.01 0.01 0.01 0.01 0.02 0.03 0.02 0.01 0.01 0.01 0.02 0.02 0.02 0.02 0.03 0.04 0.04 0.03 0.05 0.05 0.03 0.03 0.03 0.03 0.03 0.05 0.10 0.12 0.12 0.12 0.13 0.12
0.00 0.00 0.01 0.01 0.00 0.00 0.00 0.00 0.00 0.00 0.00 0.00 0.00 0.01 0.01 0.02 0.03 0.03 0.01 0.01 0.01 0.01 0.01 0.01 0.02 0.03 0.03 0.02 0.03 0.04 0.06 0.04 0.04 0.04 0.03 0.03 0.05 0.06 0.08 0.08 0.10 0.11 0.10
0.00 0.00 0.00 0.00 0.00 0.00 0.00 0.00 0.00 0.00 0.00 0.00 0.01 0.01 0.01 0.02 0.02 0.02 0.01 0.01 0.01 0.01 0.01 0.01 0.01 0.02 0.03 0.03 0.03 0.02 0.05 0.07 0.05 0.05 0.03 0.03 0.04 0.06 0.06 0.06 0.05 0.05 0.06
0.00 0.00 0.00 0.00 0.00 0.00 0.00 0.00 0.00 0.01 0.01 0.01 0.01 0.01 0.01 0.01 0.01 0.01 0.01 0.01 0.01 0.00 0.00 0.01 0.01 0.02 0.03 0.04 0.04 0.03 0.03 0.05 0.05 0.06 0.04 0.03 0.04 0.07 0.08 0.06 0.04 0.03 0.02
0.00 0.00 0.00 0.00 0.00 0.00 0.00 0.00 0.01 0.01 0.01 0.01 0.01 0.01 0.01 0.01 0.00 0.01 0.01 0.01 0.01 0.01 0.00 0.01 0.02 0.02 0.02 0.03 0.04 0.04 0.04 0.04 0.04 0.06 0.05 0.04 0.04 0.06 0.10 0.07 0.03 0.02 0.02
0.00 0.00 0.00 0.00 0.00 0.00 0.00 0.00 0.00 0.00 0.01 0.01 0.01 0.01 0.01 0.02 0.02 0.02 0.02 0.01 0.01 0.01 0.00 0.00 0.01 0.01 0.01 0.02 0.03 0.03 0.05 0.05 0.04 0.05 0.06 0.05 0.04 0.04 0.10 0.09 0.04 0.02 0.02
0.00 0.00 0.00 0.00 0.00 0.00 0.00 0.00 0.00 0.00 0.00 0.00 0.01 0.01 0.01 0.02 0.02 0.01 0.00 0.01 0.01 0.01 0.01 0.01 0.01 0.00 0.01 0.01 0.02 0.02 0.03 0.04 0.05 0.05 0.05 0.05 0.04 0.04 0.05 0.09 0.05 0.02 0.01
0.00 0.00 0.00 0.00 0.00 0.00 0.00 0.00 0.00 0.00 0.00 0.00 0.01 0.02 0.01 0.02 0.02 0.01 0.01 0.01 0.01 0.01 0.01 0.01 0.01 0.01 0.01 0.01 0.02 0.03 0.03 0.04 0.05 0.06 0.05 0.04 0.04 0.03 0.03 0.06 0.07 0.04 0.02
0.00 0.00 0.00 0.00 0.00 0.00 0.00 0.00 0.00 0.00 0.00 0.00 0.01 0.01 0.00 0.01 0.01 0.01 0.02 0.01 0.01 0.01 0.01 0.02 0.01 0.01 0.01 0.01 0.02 0.03 0.03 0.04 0.04 0.05 0.06 0.04 0.04 0.04 0.04 0.04 0.06 0.06 0.04
0.00 0.00 0.00 0.00 0.00 0.00 0.00 0.00 0.00 0.00 0.00 0.00 0.00 0.00 0.00 0.00 0.00 0.01 0.00 0.00 0.01 0.01 0.02 0.03 0.02 0.01 0.01 0.01 0.02 0.02 0.03 0.03 0.03 0.04 0.06 0.05 0.06 0.08 0.06 0.05 0.06 0.06 0.04
0.00 0.00 0.00 0.00 0.00 0.00 0.00 0.00 0.00 0.00 0.00 0.00 0.00 0.00 0.01 0.00 0.00 0.00 0.00 0.00 0.00 0.01 0.01 0.02 0.02 0.01 0.02 0.02 0.02 0.02 0.03 0.04 0.05 0.06 0.06 0.06 0.06 0.08 0.08 0.07 0.07 0.06 0.05
0.00 0.00 0.00 0.00 0.00 0.00 0.00 0.00 0.00 0.00 0.00 0.00 0.00 0.00 0.01 0.01 0.00 0.00 0.00 0.00 0.01 0.01 0.01 0.01 0.01 0.01 0.01 0.02 0.03 0.03 0.04 0.04 0.05 0.06 0.07 0.06 0.06 0.08 0.10 0.09 0.09 0.09 0.08
0.00 0.00 0.00 0.00 0.00 0.00 0.00 0.00 0.00 0.00 0.00 0.00 0.00 0.01 0.01 0.01 0.00 0.00 0.00 0.00 0.01 0.01 0.01 0.01 0.01 0.01 0.01 0.01 0.02 0.03 0.03 0.04 0.05 0.06 0.07 0.08 0.06 0.07 0.11 0.13 0.09 0.08 0.08
MSLP
1014.66 1014.52 1014.28 1013.96 1013.59 1013.21 1012.85 1012.56 1012.34 1012.18 1012.07 1011.97 1011.84 1011.67 1011.45 1011.21 1010.98 1010.82 1010.76 1010.83 1011.01 1011.27 1011.51 1011.64 1011.56 1011.18 1010.50 1009.54 1008.38 1007.18 1006.09 1005.30 1004.94 1005.10 1005.78 1006.90 1008.34 1009.94 1011.52 1012.94 1014.10 1014.96 1015.56
1014.81 1014.68 1014.45 1014.14 1013.78 1013.40 1013.04 1012.73 1012.49 1012.31 1012.18 1012.07 1011.94 1011.77 1011.56 1011.32 1011.09 1010.91 1010.82 1010.84 1010.98 1011.19 1011.42 1011.57 1011.56 1011.31 1010.78 1010.00 1009.04 1008.02 1007.08 1006.39 1006.07 1006.21 1006.81 1007.82 1009.13 1010.58 1012.03 1013.34 1014.42 1015.23 1015.80
1014.94 1014.82 1014.61 1014.33 1014.00 1013.64 1013.29 1012.99 1012.74 1012.55 1012.41 1012.28 1012.15 1011.99 1011.79 1011.55 1011.31 1011.09 1010.94 1010.89 1010.95 1011.10 1011.29 1011.46 1011.52 1011.41 1011.09 1010.55 1009.86 1009.09 1008.37 1007.82 1007.58 1007.70 1008.21 1009.07 1010.18 1011.43 1012.69 1013.84 1014.79 1015.52 1016.04
1015.04 1014.93 1014.75 1014.51 1014.22 1013.90 1013.59 1013.29 1013.05 1012.85 1012.70 1012.58 1012.45 1012.30 1012.10 1011.87 1011.61 1011.35 1011.14 1011.00 1010.96 1011.03 1011.17 1011.33 1011.47 1011.50 1011.39 1011.12 1010.71 1010.23 1009.76 1009.39 1009.24 1009.36 1009.77 1010.46 1011.35 1012.37 1013.40 1014.35 1015.16 1015.79 1016.26
1015.13 1015.02 1014.87 1014.67 1014.43 1014.16 1013.87 1013.60 1013.36 1013.17 1013.02 1012.89 1012.77 1012.64 1012.46 1012.24 1011.98 1011.69 1011.42 1011.20 1011.07 1011.04 1011.11 1011.26 1011.43 1011.58 1011.66 1011.65 1011.52 1011.32 1011.10 1010.92 1010.86 1010.98 1011.30 1011.81 1012.49 1013.27 1014.07 1014.83 1015.49 1016.03 1016.45
1015.23 1015.12 1014.98 1014.82 1014.62 1014.39 1014.14 1013.89 1013.66 1013.46 1013.31 1013.19 1013.08 1012.97 1012.83 1012.64 1012.39 1012.11 1011.81 1011.53 1011.31 1011.19 1011.19 1011.29 1011.48 1011.71 1011.93 1012.11 1012.22 1012.27 1012.26 1012.25 1012.28 1012.40 1012.64 1013.01 1013.49 1014.06 1014.66 1015.24 1015.77 1016.23 1016.61
1015.34 1015.22 1015.09 1014.95 1014.79 1014.59 1014.37 1014.14 1013.91 1013.71 1013.55 1013.44 1013.35 1013.27 1013.18 1013.04 1012.84 1012.58 1012.28 1011.97 1011.70 1011.51 1011.43 1011.47 1011.64 1011.89 1012.19 1012.50 1012.78 1013.01 1013.18 1013.30 1013.41 1013.54 1013.72 1013.98 1014.30 1014.70 1015.13 1015.57 1016.00 1016.39 1016.75
1015.48 1015.35 1015.22 1015.09 1014.95 1014.78 1014.58 1014.36 1014.13 1013.93 1013.77 1013.66 1013.59 1013.54 1013.50 1013.42 1013.29 1013.09 1012.82 1012.52 1012.23 1011.98 1011.83 1011.81 1011.92 1012.15 1012.46 1012.83 1013.20 1013.53 1013.82 1014.04 1014.21 1014.36 1014.51 1014.69 1014.91 1015.18 1015.50 1015.84 1016.19 1016.54 1016.87
1015.65 1015.50 1015.37 1015.26 1015.13 1014.98 1014.80 1014.58 1014.36 1014.15 1013.98 1013.86 1013.80 1013.79 1013.79 1013.78 1013.72 1013.59 1013.38 1013.12 1012.83 1012.56 1012.36 1012.26 1012.29 1012.46 1012.74 1013.09 1013.47 1013.85 1014.19 1014.48 1014.70 1014.87 1015.02 1015.17 1015.34 1015.54 1015.78 1016.06 1016.36 1016.68 1017.00
1015.84 1015.68 1015.56 1015.45 1015.35 1015.21 1015.04 1014.84 1014.61 1014.39 1014.21 1014.08 1014.02 1014.01 1014.05 1014.09 1014.10 1014.04 1013.90 1013.69 1013.43 1013.16 1012.92 1012.76 1012.71 1012.79 1012.99 1013.28 1013.63 1014.00 1014.35 1014.66 1014.92 1015.13 1015.30 1015.46 1015.62 1015.80 1016.01 1016.25 1016.52 1016.81 1017.10
1016.02 1015.87 1015.76 1015.67 1015.58 1015.48 1015.33 1015.14 1014.92 1014.69 1014.49 1014.34 1014.26 1014.25 1014.29 1014.36 1014.41 1014.42 1014.34 1014.19 1013.97 1013.72 1013.46 1013.25 1013.12 1013.11 1013.21 1013.41 1013.68 1014.01 1014.35 1014.67 1014.95 1015.20 1015.42 1015.61 1015.79 1015.98 1016.18 1016.40 1016.65 1016.91 1017.17
1016.17 1016.03 1015.95 1015.89 1015.83 1015.76 1015.64 1015.47 1015.26 1015.03 1014.82 1014.64 1014.53 1014.49 1014.52 1014.59 1014.66 1014.70 1014.68 1014.58 1014.41 1014.18 1013.92 1013.68 1013.49 1013.39 1013.39 1013.49 1013.68 1013.94 1014.24 1014.56 1014.86 1015.15 1015.41 1015.65 1015.87 1016.08 1016.29 1016.51 1016.73 1016.95 1017.18
1016.26 1016.16 1016.10 1016.07 1016.05 1016.02 1015.94 1015.81 1015.62 1015.41 1015.18 1014.98 1014.84 1014.76 1014.75 1014.80 1014.86 1014.92 1014.92 1014.86 1014.73 1014.53 1014.29 1014.03 1013.80 1013.64 1013.55 1013.56 1013.66 1013.85 1014.10 1014.40 1014.71 1015.02 1015.33 1015.61 1015.87 1016.11 1016.33 1016.54 1016.73 1016.93 1017.12
1016.28 1016.21 1016.18 1016.18 1016.21 1016.22 1016.19 1016.10 1015.96 1015.76 1015.54 1015.33 1015.16 1015.04 1014.99 1014.99 1015.03 1015.08 1015.10 1015.07 1014.97 1014.80 1014.59 1014.34 1014.09 1013.87 1013.72 1013.66 1013.68 1013.79 1013.99 1014.25 1014.55 1014.88 1015.20 1015.52 1015.81 1016.07 1016.29 1016.49 1016.66 1016.82 1016.97
1016.24 1016.18 1016.18 1016.21 1016.27 1016.32 1016.34 1016.31 1016.21 1016.06 1015.86 1015.66 1015.47 1015.32 1015.23 1015.20 1015.21 1015.24 1015.26 1015.24 1015.17 1015.04 1014.86 1014.63 1014.38 1014.14 1013.95 1013.82 1013.77 1013.81 1013.95 1014.16 1014.43 1014.74 1015.07 1015.39 1015.69 1015.96 1016.18 1016.37 1016.52 1016.66 1016.78
1016.13 1016.09 1016.09 1016.15 1016.23 1016.32 1016.38 1016.40 1016.35 1016.25 1016.10 1015.92 1015.74 1015.59 1015.48 1015.42 1015.40 1015.41 1015.43 1015.42 1015.38 1015.29 1015.14 1014.94 1014.71 1014.47 1014.25 1014.08 1013.97 1013.95 1014.01 1014.16 1014.38 1014.65 1014.95 1015.26 1015.55 1015.81 1016.03 1016.20 1016.34 1016.46 1016.57
1016.01 1015.96 1015.97 1016.02 1016.10 1016.21 1016.30 1016.36 1016.37 1016.32 1016.22 1016.09 1015.94 1015.81 1015.71 1015.64 1015.61 1015.61 1015.62 1015.63 1015.62 1015.56 1015.45 1015.29 1015.09 1014.87 1014.64 1014.44 1014.29 1014.20 1014.20 1014.27 1014.42 1014.63 1014.89 1015.15 1015.41 1015.65 1015.85 1016.02 1016.16 1016.27 1016.39
1015.92 1015.86 1015.84 1015.88 1015.95 1016.04 1016.14 1016.22 1016.27 1016.27 1016.23 1016.15 1016.06 1015.97 1015.89 1015.83 1015.81 1015.81 1015.83 1015.85 1015.86 1015.84 1015.77 1015.65 1015.49 1015.29 1015.07 1014.87 1014.68 1014.55 1014.48 1014.48 1014.56 1014.69 1014.88 1015.09 1015.31 1015.51 1015.70 1015.86 1016.00 1016.13 1016.26
1015.91 1015.82 1015.78 1015.78 1015.82 1015.88 1015.96 1016.03 1016.10 1016.13 1016.14 1016.12 1016.08 1016.04 1016.00 1015.97 1015.97 1015.98 1016.01 1016.04 1016.06 1016.06 1016.03 1015.96 1015.84 1015.68 1015.49 1015.29 1015.10 1014.93 1014.82 1014.75 1014.76 1014.82 1014.94 1015.08 1015.25 1015.43 1015.60 1015.75 1015.90 1016.04 1016.19
1016.01 1015.91 1015.84 1015.79 1015.77 1015.78 1015.81 1015.86 1015.91 1015.96 1015.99 1016.02 1016.03 1016.03 1016.03 1016.04 1016.05 1016.07 1016.10 1016.13 1016.17 1016.19 1016.19 1016.15 1016.08 1015.96 1015.82 1015.64 1015.46 1015.29 1015.15 1015.05 1014.99 1015.00 1015.05 1015.14 1015.26 1015.40 1015.55 1015.70 1015.85 1016.01 1016.17
1016.26 1016.14 1016.03 1015.94 1015.85 1015.80 1015.76 1015.76 1015.77 1015.80 1015.84 1015.89 1015.93 1015.97 1015.99 1016.02 1016.03 1016.05 1016.07 1016.10 1016.12 1016.15 1016.17 1016.17 1016.14 1016.07 1015.98 1015.85 1015.71 1015.56 1015.42 1015.30 1015.22 1015.18 1015.19 1015.24 1015.32 1015.43 1015.55 1015.70 1015.84 1016.00 1016.16
1016.63 1016.51 1016.38 1016.23 1016.09 1015.95 1015.84 1015.77 1015.72 1015.72 1015.74 1015.78 1015.83 1015.88 1015.91 1015.93 1015.93 1015.93 1015.92 1015.92 1015.92 1015.94 1015.96 1015.98 1015.98 1015.97 1015.94 1015.87 1015.79 1015.68 1015.57 1015.47 1015.38 1015.33 1015.32 1015.34 1015.40 1015.48 1015.59 1015.71 1015.85 1015.99 1016.13
1017.09 1016.98 1016.83 1016.65 1016.45 1016.24 1016.06 1015.91 1015.80 1015.75 1015.73 1015.75 1015.78 1015.81 1015.83 1015.82 1015.79 1015.74 1015.69 1015.63 1015.59 1015.57 1015.58 1015.60 1015.63 1015.66 1015.69 1015.69 1015.66 1015.62 1015.56 1015.50 1015.45 1015.41 1015.39 1015.41 1015.45 1015.52 1015.61 1015.72 1015.83 1015.95 1016.07
1017.59 1017.50 1017.35 1017.14 1016.90 1016.64 1016.39 1016.18 1016.01 1015.91 1015.85 1015.83 1015.83 1015.83 1015.80 1015.75 1015.66 1015.55 1015.42 1015.30 1015.19 1015.12 1015.09 1015.09 1015.13 1015.19 1015.25 1015.31 1015.36 1015.38 1015.38 1015.37 1015.36 1015.36 1015.37 1015.39 1015.44 1015.51 1015.59 1015.68 1015.77 1015.87 1015.96
1018.05 1017.99 1017.84 1017.63 1017.36 1017.08 1016.79 1016.54 1016.33 1016.18 1016.09 1016.03 1015.99 1015.95 1015.87 1015.76 1015.61 1015.42 1015.21 1015.00 1014.81 1014.67 1014.58 1014.54 1014.56 1014.62 1014.71 1014.80 1014.89 1014.97 1015.03 1015.08 1015.11 1015.15 1015.19 1015.25 1015.31 1015.39 1015.48 1015.57 1015.65 1015.73 1015.79
1018.44 1018.39 1018.26 1018.05 1017.78 1017.49 1017.19 1016.93 1016.70 1016.54 1016.42 1016.34 1016.26 1016.18 1016.05 1015.88 1015.65 1015.38 1015.09 1014.79 1014.52 1014.29 1014.13 1014.04 1014.01 1014.05 1014.12 1014.22 1014.33 1014.43 1014.52 1014.61 1014.69 1014.77 1014.85 1014.94 1015.04 1015.14 1015.25 1015.35 1015.44 1015.51 1015.58
Thickness
5730 5728 5726 5725 5723 5722 5721 5720 5720 5719 5719 5720 5720 5721 5722 5723 5724 5725 5726 5728 5730 5732 5734 5737 5738 5740 5742 5744 5745 5747 5748 5750 5753 5755 5756 5757 5757 5758 5759 5759 5760 5760 5761
5728 5725 5723 5722 5720 5719 5718 5717 5716 5715 5715 5716 5716 5717 5718 5720 5721 5722 5723 5725 5727 5729 5731 5733 5735 5738 5739 5741 5743 5744 5746 5748 5750 5751 5752 5753 5754 5755 5756 5756 5757 5758 5759
5726 5723 5720 5718 5717 5716 5715 5714 5713 5712 5712 5712 5712 5714 5715 5716 5717 5719 5720 5722 5724 5726 5728 5731 5733 5735 5737 5738 5740 5741 5743 5745 5747 5748 5749 5749 5751 5752 5753 5754 5755 5755 5756
5723 5721 5718 5716 5715 5714 5712 5710 5709 5707 5706 5706 5707 5709 5711 5712 5714 5716 5717 5719 5720 5722 5725 5727 5729 5731 5734 5736 5737 5739 5740 5742 5743 5745 5746 5747 5748 5749 5750 5751 5752 5753 5753
5721 5718 5715 5713 5712 5711 5709 5707 5705 5703 5701 5701 5703 5705 5706 5708 5710 5712 5714 5715 5717 5719 5721 5724 5726 5728 5730 5732 5734 5736 5737 5739 5740 5742 5743 5744 5746 5747 5748 5748 5749 5750 5750
5719 5716 5713 5711 5710 5707 5705 5703 5701 5700 5698 5698 5699 5700 5701 5704 5706 5708 5710 5712 5714 5715 5717 5720 5722 5724 5726 5728 5730 5732 5734 5736 5737 5738 5740 5741 5743 5746 5747 5746 5746 5747 5748
5717 5714 5711 5709 5707 5704 5702 5700 5698 5696 5694 5695 5693 5692 5695 5699 5701 5703 5706 5708 5710 5712 5714 5716 5718 5720 5722 5724 5727 5729 5731 5733 5734 5736 5737 5738 5740 5742 5743 5744 5745 5746 5746
5715 5713 5710 5707 5705 5702 5700 5698 5695 5692 5691 5691 5688 5684 5682 5686 5693 5699 5701 5703 5705 5708 5710 5712 5714 5716 5719 5721 5723 5726 5728 5730 5731 5733 5734 5735 5736 5738 5740 5741 5742 5744 5744
5714 5712 5709 5706 5703 5701 5697 5696 5694 5691 5687 5688 5688 5683 5677 5676 5682 5690 5695 5698 5700 5703 5705 5708 5710 5713 5715 5717 5720 5722 5725 5727 5729 5730 5731 5733 5734 5735 5737 5738 5740 5741 5742
5713 5710 5708 5706 5703 5700 5697 5696 5694 5691 5688 5685 5685 5685 5683 5682 5678 5679 5687 5692 5696 5698 5701 5704 5707 5709 5711 5714 5716 5719 5721 5723 5725 5727 5729 5730 5731 5733 5734 5736 5737 5738 5738
5711 5709 5707 5705 5702 5700 5697 5696 5694 5691 5689 5686 5684 5683 5682 5681 5680 5677 5677 5683 5689 5693 5697 5700 5703 5706 5708 5710 5712 5715 5717 5719 5722 5724 5725 5727 5729 5730 5731 5733 5734 5734 5735
5709 5708 5706 5704 5702 5699 5697 5696 5694 5692 5689 5687 5685 5684 5682 5680 5678 5677 5676 5677 5680 5687 5693 5696 5699 5702 5704 5707 5709 5711 5713 5716 5718 5720 5722 5723 5725 5727 5728 5729 5730 5731 5732
5706 5706 5705 5703 5701 5700 5698 5696 5694 5691 5689 5687 5686 5684 5683 5682 5681 5679 5677 5675 5677 5681 5687 5692 5696 5699 5701 5704 5706 5708 5710 5712 5714 5716 5718 5720 5722 5723 5725 5726 5727 5728 5728
5705 5705 5704 5703 5701 5700 5698 5696 5694 5691 5690 5688 5687 5685 5683 5682 5682 5681 5678 5675 5673 5675 5680 5685 5692 5695 5698 5700 5702 5704 5706 5708 5710 5712 5714 5716 5717 5720 5721 5723 5723 5724 5725
5706 5705 5703 5702 5701 5699 5697 5695 5693 5691 5690 5688 5686 5685 5683 5682 5682 5682 5680 5679 5674 5670 5673 5680 5685 5691 5694 5696 5698 5700 5702 5704 5706 5708 5709 5711 5713 5715 5717 5718 5720 5720 5721
5705 5703 5701 5700 5699 5698 5696 5694 5692 5691 5689 5687 5685 5684 5682 5682 5681 5681 5681 5680 5678 5675 5672 5677 5682 5686 5690 5693 5694 5696 5698 5700 5702 5704 5705 5707 5709 5711 5713 5714 5715 5716 5716
5703 5701 5700 5698 5697 5695 5694 5693 5691 5689 5687 5686 5685 5683 5682 5681 5680 5680 5680 5679 5677 5675 5672 5675 5679 5683 5685 5687 5690 5692 5694 5695 5697 5700 5702 5703 5705 5707 5708 5710 5711 5711 5712
5701 5700 5698 5696 5695 5694 5693 5691 5689 5688 5686 5684 5683 5682 5681 5681 5680 5679 5678 5677 5676 5675 5673 5672 5674 5677 5680 5682 5685 5686 5688 5690 5693 5695 5697 5699 5701 5702 5704 5705 5705 5706 5706
5699 5697 5696 5694 5693 5692 5690 5689 5687 5686 5684 5683 5682 5681 5680 5679 5678 5677 5676 5675 5674 5674 5672 5670 5670 5673 5675 5677 5678 5680 5683 5685 5687 5690 5692 5694 5696 5697 5698 5699 5700 5701 5701
5696 5694 5693 5692 5691 5690 5688 5687 5685 5683 5682 5681 5680 5679 5679 5678 5676 5676 5675 5673 5672 5670 5669 5667 5667 5667 5669 5672 5673 5673 5675 5678 5681 5684 5686 5688 5689 5691 5692 5693 5694 5695 5695
5693 5691 5690 5689 5688 5687 5686 5684 5682 5681 5679 5678 5678 5677 5677 5677 5676 5675 5674 5671 5670 5667 5665 5664 5663 5663 5664 5665 5667 5669 5670 5672 5675 5677 5679 5681 5682 5684 5685 5686 5687 5689 5689
5689 5687 5686 5684 5683 5683 5683 5682 5680 5678 5676 5675 5674 5675 5675 5674 5674 5673 5672 5671 5669 5666 5663 5661 5661 5661 5662 5663 5665 5666 5665 5665 5666 5672 5672 5673 5676 5677 5679 5680 5681 5682 5683
5684 5682 5681 5679 5678 5678 5678 5678 5676 5674 5672 5671 5670 5670 5671 5671 5670 5668 5668 5668 5667 5666 5665 5662 5660 5660 5661 5662 5662 5662 5662 5662 5664 5667 5667 5666 5669 5670 5673 5674 5675 5676 5676
5678 5676 5675 5674 5672 5673 5673 5672 5671 5669 5667 5666 5665 5665 5664 5665 5665 5663 5662 5661 5661 5661 5661 5660 5660 5661 5662 5662 5662 5662 5661 5660 5660 5662 5663 5661 5663 5664 5666 5667 5668 5669 5670
5671 5670 5669 5668 5666 5666 5667 5666 5665 5662 5660 5660 5660 5660 5659 5659 5660 5659 5657 5655 5655 5656 5658 5658 5658 5659 5659 5659 5659 5657 5655 5654 5653 5655 5657 5657 5657 5657 5658 5660 5661 5662 5662
5664 5663 5662 5660 5659 5658 5659 5659 5658 5654 5652 5653 5653 5653 5654 5654 5654 5653 5650 5649 5649 5651 5651 5652 5652 5653 5654 5654 5655 5654 5653 5651 5650 5650 5652 5651 5651 5650 5649 5652 5653 5654 5654